Location: Unspecified
(0.0000°N, 0.0000°E)
Time: 04:03:00
(UTC+00:00)

Explorer 11/Cluster Stage 4 - Visible Passes

Search period start: 28 November 2014 00:00
Search period end: 08 December 2014 00:00
Orbit: 468 x 1279 km, 28.8° (Epoch: 27 November)

Date Brightness Start Highest point End Pass type
(mag) Time Alt. Az. Time Alt. Az. Time Alt. Az.
28 Nov 9.2 03:09:51 13° NE 03:09:51 13° NE 03:10:28 10° NE visible
28 Nov 8.5 04:52:16 13° NW 04:54:19 15° NNW 04:58:12 10° NNE visible
29 Nov 8.7 04:46:02 11° NNW 04:47:07 12° NNW 04:49:27 10° N visible
07 Dec 8.9 20:22:40 10° SSW 20:22:57 11° SSW 20:22:57 11° SSW visible
